When you browse on this site, cookies collect data to enhance your experience and personalize the content and advertising you see.
Visit our Privacy Policy to learn more. By continuing to use the site, you agree to this use of cookies and data.
  • en France
  • Liste des pays
  • À 7 jours
  • Température de l'eau
  • Carte satellitaire
  • Carte météo
  • Widgets météo
  • user-avatar
    Se connecter

    Météo par heure à Novoatashevo

    Ce jour, 17 Février, Dimanche

    Heure Température Précipitation Vent Pression Humidité
    00:00 -7°C° 0 mm 3 m/s 739 mmHg 96%
    01:00 -8°C° 0 mm 3 m/s 739 mmHg 96%
    02:00 -6°C° 0 mm 3 m/s 739 mmHg 96%
    03:00 -5°C° 0 mm 3 m/s 739 mmHg 96%
    04:00 -4°C° 0 mm 3 m/s 739 mmHg 96%
    05:00 -4°C° 0 mm 3 m/s 739 mmHg 97%
    06:00 -5°C° 0 mm 3 m/s 739 mmHg 97%
    07:00 -5°C° 0 mm 3 m/s 739 mmHg 97%
    08:00 -5°C° 0 mm 3 m/s 738 mmHg 96%
    09:00 -5°C° 0 mm 3 m/s 738 mmHg 95%
    10:00 -5°C° 0 mm 3 m/s 738 mmHg 94%
    11:00 -5°C° 0 mm 3 m/s 737 mmHg 93%
    12:00 -4°C° 0 mm 3 m/s 737 mmHg 91%
    13:00 -3°C° 0 mm 4 m/s 736 mmHg 90%
    14:00 -3°C° 0.1 mm 4 m/s 736 mmHg 89%
    15:00 -4°C° 0.1 mm 5 m/s 735 mmHg 89%
    16:00 -4°C° 0.1 mm 5 m/s 734 mmHg 88%
    17:00 -5°C° 0 mm 5 m/s 734 mmHg 88%
    18:00 -5°C° 0 mm 5 m/s 733 mmHg 89%
    19:00 -6°C° 0 mm 5 m/s 733 mmHg 89%
    20:00 -6°C° 0 mm 5 m/s 732 mmHg 89%
    21:00 -6°C° 0 mm 6 m/s 731 mmHg 89%
    22:00 -8°C° 0 mm 6 m/s 730 mmHg 89%
    23:00 -8°C° 0.2 mm 6 m/s 729 mmHg 90%

    Demain, 18 Février, Lundi

    Heure Température Précipitation Vent Pression Humidité
    00:00 -8°C° 0.2 mm 6 m/s 729 mmHg 91%
    01:00 -8°C° 0.2 mm 6 m/s 728 mmHg 92%
    02:00 -9°C° 0.3 mm 6 m/s 728 mmHg 92%
    03:00 -8°C° 0.3 mm 5 m/s 727 mmHg 92%
    04:00 -8°C° 0.3 mm 5 m/s 727 mmHg 93%
    05:00 -8°C° 0.3 mm 5 m/s 727 mmHg 93%
    06:00 -8°C° 0.3 mm 4 m/s 726 mmHg 94%
    07:00 -8°C° 0.3 mm 4 m/s 726 mmHg 94%
    08:00 -7°C° 0.2 mm 3 m/s 726 mmHg 94%
    09:00 -6°C° 0.2 mm 3 m/s 726 mmHg 94%
    10:00 -6°C° 0.2 mm 3 m/s 726 mmHg 94%
    11:00 -4°C° 0.2 mm 2 m/s 727 mmHg 93%
    12:00 -4°C° 0.2 mm 2 m/s 727 mmHg 92%
    13:00 -1°C° 0.2 mm 1 m/s 727 mmHg 92%
    14:00 -1°C° 0.2 mm 1 m/s 727 mmHg 92%
    15:00 -3°C° 0.2 mm 2 m/s 728 mmHg 93%
    16:00 -3°C° 0.2 mm 2 m/s 728 mmHg 94%
    17:00 -4°C° 0.2 mm 3 m/s 729 mmHg 95%
    18:00 -5°C° 0.2 mm 3 m/s 729 mmHg 95%
    19:00 -5°C° 0.2 mm 4 m/s 730 mmHg 96%
    20:00 -5°C° 0.2 mm 4 m/s 731 mmHg 95%
    21:00 -6°C° 0.2 mm 5 m/s 731 mmHg 95%
    22:00 -6°C° 0.2 mm 6 m/s 732 mmHg 94%
    23:00 -6°C° 0.2 mm 6 m/s 733 mmHg 94%

    Après-demain, 19 Février, Mardi

    Heure Température Précipitation Vent Pression Humidité
    00:00 -7°C° 0.2 mm 7 m/s 734 mmHg 93%
    01:00 -7°C° 0.2 mm 7 m/s 735 mmHg 92%
    02:00 -10°C° 0.2 mm 8 m/s 736 mmHg 90%
    03:00 -11°C° 0.2 mm 9 m/s 737 mmHg 89%
    04:00 -14°C° 0.2 mm 9 m/s 739 mmHg 87%
    05:00 -15°C° 0 mm 9 m/s 740 mmHg 87%
    06:00 -17°C° 0 mm 8 m/s 741 mmHg 87%
    07:00 -18°C° 0 mm 8 m/s 742 mmHg 87%
    08:00 -19°C° 0 mm 7 m/s 743 mmHg 86%
    09:00 -19°C° 0 mm 7 m/s 744 mmHg 86%
    10:00 -20°C° 0 mm 7 m/s 744 mmHg 85%
    11:00 -20°C° 0 mm 7 m/s 745 mmHg 84%
    12:00 -18°C° 0 mm 6 m/s 746 mmHg 84%
    13:00 -18°C° 0 mm 6 m/s 746 mmHg 84%
    14:00 -18°C° 0 mm 5 m/s 747 mmHg 84%
    15:00 -18°C° 0 mm 5 m/s 747 mmHg 85%
    16:00 -17°C° 0 mm 4 m/s 747 mmHg 86%
    17:00 -17°C° 0 mm 4 m/s 748 mmHg 87%
    18:00 -17°C° 0 mm 3 m/s 748 mmHg 88%
    19:00 -17°C° 0 mm 3 m/s 748 mmHg 89%
    20:00 -16°C° 0 mm 3 m/s 748 mmHg 88%
    21:00 -15°C° 0 mm 3 m/s 748 mmHg 87%
    22:00 -14°C° 0 mm 3 m/s 748 mmHg 86%
    23:00 -15°C° 0.1 mm 4 m/s 748 mmHg 87%

    20 Février, Mercredi

    Heure Température Précipitation Vent Pression Humidité
    00:00 -14°C° 0.1 mm 4 m/s 748 mmHg 88%
    01:00 -14°C° 0.1 mm 4 m/s 748 mmHg 90%
    02:00 -14°C° 0.1 mm 4 m/s 748 mmHg 91%
    03:00 -14°C° 0.1 mm 4 m/s 747 mmHg 92%
    04:00 -12°C° 0.1 mm 4 m/s 747 mmHg 93%
    05:00 -12°C° 0 mm 4 m/s 747 mmHg 93%
    06:00 -12°C° 0 mm 3 m/s 747 mmHg 94%
    07:00 -12°C° 0 mm 3 m/s 747 mmHg 94%
    08:00 -12°C° 0 mm 3 m/s 748 mmHg 94%
    09:00 -12°C° 0 mm 4 m/s 748 mmHg 94%
    10:00 -11°C° 0 mm 4 m/s 748 mmHg 94%
    11:00 -10°C° 0 mm 4 m/s 748 mmHg 94%
    12:00 -10°C° 0 mm 4 m/s 748 mmHg 93%
    13:00 -10°C° 0 mm 5 m/s 748 mmHg 93%
    14:00 -10°C° 0 mm 5 m/s 747 mmHg 92%
    15:00 -10°C° 0 mm 5 m/s 747 mmHg 91%
    16:00 -10°C° 0 mm 6 m/s 747 mmHg 90%
    17:00 -11°C° 0 mm 6 m/s 747 mmHg 90%
    18:00 -12°C° 0 mm 6 m/s 746 mmHg 90%
    19:00 -13°C° 0 mm 5 m/s 746 mmHg 90%
    20:00 -12°C° 0 mm 6 m/s 746 mmHg 89%
    21:00 -12°C° 0 mm 6 m/s 746 mmHg 88%
    22:00 -11°C° 0 mm 6 m/s 746 mmHg 88%
    23:00 -11°C° 0 mm 6 m/s 746 mmHg 87%

    21 Février, Jeudi

    Heure Température Précipitation Vent Pression Humidité
    00:00 -12°C° 0 mm 6 m/s 746 mmHg 87%
    01:00 -12°C° 0 mm 6 m/s 746 mmHg 86%
    02:00 -12°C° 0 mm 6 m/s 745 mmHg 86%
    03:00 -14°C° 0 mm 6 m/s 745 mmHg 86%
    04:00 -14°C° 0 mm 6 m/s 745 mmHg 86%
    05:00 -14°C° 0 mm 7 m/s 745 mmHg 86%
    06:00 -14°C° 0 mm 7 m/s 745 mmHg 87%
    07:00 -14°C° 0 mm 7 m/s 744 mmHg 87%
    08:00 -15°C° 0 mm 8 m/s 744 mmHg 86%
    09:00 -15°C° 0 mm 8 m/s 744 mmHg 86%
    10:00 -13°C° 0 mm 8 m/s 744 mmHg 85%
    11:00 -12°C° 0 mm 8 m/s 744 mmHg 86%
    12:00 -12°C° 0 mm 8 m/s 744 mmHg 87%
    13:00 -11°C° 0 mm 8 m/s 744 mmHg 87%
    14:00 -11°C° 0.2 mm 8 m/s 744 mmHg 88%
    15:00 -10°C° 0.2 mm 8 m/s 744 mmHg 88%
    16:00 -9°C° 0.2 mm 7 m/s 744 mmHg 88%
    17:00 -9°C° 0.2 mm 7 m/s 744 mmHg 89%
    18:00 -9°C° 0.2 mm 7 m/s 744 mmHg 89%
    19:00 -9°C° 0.2 mm 6 m/s 744 mmHg 90%
    20:00 -9°C° 0.1 mm 6 m/s 744 mmHg 90%
    21:00 -9°C° 0.1 mm 6 m/s 744 mmHg 90%
    22:00 -9°C° 0.1 mm 6 m/s 744 mmHg 90%
    23:00 -7°C° 0.1 mm 5 m/s 743 mmHg 90%

    22 Février, Vendredi

    Heure Température Précipitation Vent Pression Humidité
    00:00 -7°C° 0.1 mm 5 m/s 743 mmHg 90%
    01:00 -6°C° 0.1 mm 5 m/s 743 mmHg 90%
    02:00 -6°C° 0.1 mm 5 m/s 743 mmHg 90%
    03:00 -5°C° 0.1 mm 4 m/s 743 mmHg 90%
    04:00 -5°C° 0.1 mm 4 m/s 742 mmHg 91%
    05:00 -5°C° 0 mm 4 m/s 742 mmHg 91%
    06:00 -7°C° 0 mm 4 m/s 742 mmHg 92%
    07:00 -7°C° 0 mm 4 m/s 742 mmHg 93%
    08:00 -5°C° 0.1 mm 4 m/s 742 mmHg 92%
    09:00 -4°C° 0.1 mm 4 m/s 742 mmHg 92%
    10:00 -4°C° 0.1 mm 5 m/s 742 mmHg 92%
    11:00 -2°C° 0.2 mm 4 m/s 742 mmHg 92%
    12:00 -2°C° 0.2 mm 4 m/s 742 mmHg 92%
    13:00 -2°C° 0.2 mm 4 m/s 742 mmHg 92%
    14:00 -1°C° 0.1 mm 3 m/s 742 mmHg 92%
    15:00 -1°C° 0.1 mm 3 m/s 742 mmHg 91%
    16:00 -1°C° 0.1 mm 2 m/s 742 mmHg 91%
    17:00 -2°C° 0 mm 2 m/s 742 mmHg 92%
    18:00 -3°C° 0 mm 2 m/s 742 mmHg 92%
    19:00 -5°C° 0 mm 2 m/s 742 mmHg 93%
    20:00 -4°C° 0.2 mm 2 m/s 742 mmHg 94%
    21:00 -4°C° 0.2 mm 2 m/s 743 mmHg 95%
    22:00 -4°C° 0.2 mm 2 m/s 743 mmHg 96%
    23:00 -4°C° 0.3 mm 2 m/s 743 mmHg 96%
    Voir plus